WY6Y-13 Weather Reports


time (UTC)temp
C
wind
direction
speed
KPH
gust
KPH
rain 1hr
cm
rain 24hr
cm
rain mn
cm
humidity
%
barometer
mb
20260906203518 41 0 0.0 0.0 0.00 0.00 0.00 32 1012.9
20260906202517 41 67 8.0 8.0 0.00 0.00 0.00 31 1012.9
20260906201515 41 0 0.0 0.0 0.00 0.00 0.00 31 1013.2
20260906200514 41 0 0.0 0.0 0.00 0.00 0.00 32 1013.5
20260906195513 41 0 0.0 0.0 0.00 0.00 0.00 33 1013.5
20260906194512 40 0 0.0 0.0 0.00 0.00 0.00 34 1013.5
20260906193510 40 0 0.0 0.0 0.00 0.00 0.00 35 1013.9
20260906192509 38 0 0.0 0.0 0.00 0.00 0.00 37 1013.9
20260906191508 40 0 0.0 0.0 0.00 0.00 0.00 36 1013.9
20260906190507 41 0 0.0 0.0 0.00 0.00 0.00 33 1014.2
20260906185505 41 0 0.0 0.0 0.00 0.00 0.00 32 1014.2
20260906184504 41 0 0.0 0.0 0.00 0.00 0.00 35 1014.2
20260906183503 40 0 0.0 0.0 0.00 0.00 0.00 34 1014.6
20260906182502 40 0 0.0 0.0 0.00 0.00 0.00 36 1014.6
20260906181500 40 0 0.0 0.0 0.00 0.00 0.00 36 1014.9
20260906180458 40 0 0.0 0.0 0.00 0.00 0.00 36 1014.9
20260906175457 40 0 0.0 0.0 0.00 0.00 0.00 38 1015.2
20260906174455 40 0 0.0 0.0 0.00 0.00 0.00 37 1015.6
20260906173454 39 0 0.0 0.0 0.00 0.00 0.00 39 1015.6
20260906172453 38 180 6.4 6.4 0.00 0.00 0.00 40 1015.6
20260906171452 37 0 0.0 0.0 0.00 0.00 0.00 41 1015.6
20260906170450 36 0 0.0 0.0 0.00 0.00 0.00 44 1015.9
20260906165449 36 0 0.0 0.0 0.00 0.00 0.00 44 1015.9
20260906164448 35 0 0.0 0.0 0.00 0.00 0.00 46 1015.9
20260906163447 36 0 0.0 0.0 0.00 0.00 0.00 46 1015.9
20260906162446 37 0 0.0 0.0 0.00 0.00 0.00 44 1015.9
20260906161444 37 0 0.0 0.0 0.00 0.00 0.00 43 1015.9
20260906160443 36 0 0.0 0.0 0.00 0.00 0.00 44 1015.9
20260906155442 36 0 0.0 0.0 0.00 0.00 0.00 44 1015.6
20260906154440 35 0 0.0 0.0 0.00 0.00 0.00 47 1015.6
20260906153439 35 0 0.0 0.0 0.00 0.00 0.00 47 1015.6
20260906152438 35 0 0.0 0.0 0.00 0.00 0.00 48 1015.6
20260906151437 33 0 0.0 0.0 0.00 0.00 0.00 52 1015.6
20260906150435 32 0 0.0 0.0 0.00 0.00 0.00 54 1015.6
20260906145434 32 0 0.0 0.0 0.00 0.00 0.00 55 1015.6
20260906144433 32 0 0.0 0.0 0.00 0.00 0.00 55 1015.6
20260906143432 32 0 0.0 0.0 0.00 0.00 0.00 56 1015.6
20260906142430 30 0 0.0 0.0 0.00 0.00 0.00 64 1015.6
20260906141429 29 0 0.0 0.0 0.00 0.00 0.00 63 1015.6
20260906140428 28 0 0.0 0.0 0.00 0.00 0.00 64 1015.2
20260906135426 27 0 0.0 0.0 0.00 0.00 0.00 67 1015.2
20260906134425 26 0 0.0 0.0 0.00 0.00 0.00 71 1015.2
20260906133424 26 0 0.0 0.0 0.00 0.00 0.00 73 1015.2
20260906132423 25 0 0.0 0.0 0.00 0.00 0.00 74 1015.2
20260906131421 25 0 0.0 0.0 0.00 0.00 0.00 74 1014.9
20260906130420 25 0 0.0 0.0 0.00 0.00 0.00 74 1014.9
20260906125418 25 0 0.0 0.0 0.00 0.00 0.00 76 1014.6
20260906124417 24 0 0.0 0.0 0.00 0.00 0.00 77 1014.6
20260906123416 24 0 0.0 0.0 0.00 0.00 0.00 77 1014.6
20260906122415 24 0 0.0 0.0 0.00 0.00 0.00 77 1014.6
20260906121414 24 0 0.0 0.0 0.00 0.00 0.00 75 1014.2
20260906120412 24 0 0.0 0.0 0.00 0.00 0.00 75 1014.2
20260906115411 24 0 0.0 0.0 0.00 0.00 0.00 76 1013.9
20260906114410 24 0 0.0 0.0 0.00 0.00 0.00 76 1013.9
20260906113408 24 0 0.0 0.0 0.00 0.00 0.00 76 1013.9
20260906112407 24 0 0.0 0.0 0.00 0.00 0.00 76 1013.9
20260906111406 24 0 0.0 0.0 0.00 0.00 0.00 74 1013.9
20260906110404 24 0 0.0 0.0 0.00 0.00 0.00 75 1013.5
20260906105403 25 0 0.0 0.0 0.00 0.00 0.00 74 1013.5
20260906104402 25 0 0.0 0.0 0.00 0.00 0.00 74 1013.5
20260906103401 25 0 0.0 0.0 0.00 0.00 0.00 73 1013.5
20260906102359 25 0 0.0 0.0 0.00 0.00 0.00 73 1013.5
20260906101358 25 0 0.0 0.0 0.00 0.00 0.00 73 1013.5
20260906100357 25 0 0.0 0.0 0.00 0.00 0.00 73 1013.5
20260906095356 25 0 0.0 0.0 0.00 0.00 0.00 74 1013.5
20260906094355 25 0 0.0 0.0 0.00 0.00 0.00 72 1013.5
20260906093353 25 0 0.0 0.0 0.00 0.00 0.00 72 1013.5
20260906092352 25 0 0.0 0.0 0.00 0.00 0.00 72 1013.5
20260906091351 25 0 0.0 0.0 0.00 0.00 0.00 72 1013.5
20260906090350 25 0 0.0 0.0 0.00 0.00 0.00 72 1013.5
20260906085348 25 0 0.0 0.0 0.00 0.00 0.00 71 1013.5
20260906084347 25 0 0.0 0.0 0.00 0.00 0.00 71 1013.2
20260906083346 25 0 0.0 0.0 0.00 0.00 0.00 70 1013.2
20260906082345 25 0 0.0 0.0 0.00 0.00 0.00 70 1013.5
20260906081343 26 0 0.0 0.0 0.00 0.00 0.00 69 1013.5
20260906080342 26 0 0.0 0.0 0.00 0.00 0.00 70 1013.2
20260906075341 26 0 0.0 0.0 0.00 0.00 0.00 69 1013.2
20260906074339 26 0 0.0 0.0 0.00 0.00 0.00 68 1013.5
20260906073338 26 0 0.0 0.0 0.00 0.00 0.00 68 1013.5
20260906072337 26 0 0.0 0.0 0.00 0.00 0.00 67 1013.5
20260906071335 26 0 0.0 0.0 0.00 0.00 0.00 65 1013.5
20260906070334 27 0 0.0 0.0 0.00 0.00 0.00 65 1013.5
20260906065333 27 0 0.0 0.0 0.00 0.00 0.00 64 1013.5
20260906064332 27 0 0.0 0.0 0.00 0.00 0.00 62 1013.5
20260906063330 27 0 0.0 0.0 0.00 0.00 0.00 62 1013.5
20260906062329 28 0 0.0 0.0 0.00 0.00 0.00 62 1013.5
20260906061328 28 0 0.0 0.0 0.00 0.00 0.00 61 1013.5
20260906060327 28 0 0.0 0.0 0.00 0.00 0.00 59 1013.2
20260906055325 28 0 0.0 0.0 0.00 0.00 0.00 59 1013.2
20260906054324 28 0 0.0 0.0 0.00 0.00 0.00 59 1013.2
20260906053323 28 0 0.0 0.0 0.00 0.00 0.00 58 1013.2
20260906052322 28 0 0.0 0.0 0.00 0.00 0.00 59 1013.2
20260906051320 27 0 0.0 0.0 0.00 0.00 0.00 62 1012.9
20260906050319 28 0 0.0 0.0 0.00 0.00 0.00 63 1013.2
20260906045318 28 0 0.0 0.0 0.00 0.00 0.00 63 1013.2
20260906044316 28 0 0.0 0.0 0.00 0.00 0.00 61 1013.2
20260906043315 28 0 0.0 0.0 0.00 0.00 0.00 60 1013.2
20260906042314 28 0 0.0 0.0 0.00 0.00 0.00 60 1013.2
20260906041312 28 0 0.0 0.0 0.00 0.00 0.00 61 1013.2
20260906040311 28 0 0.0 0.0 0.00 0.00 0.00 59 1013.2
20260906035310 29 0 0.0 0.0 0.00 0.00 0.00 58 1013.2
20260906034308 29 0 0.0 0.0 0.00 0.00 0.00 58 1013.2
20260906033307 30 0 0.0 0.0 0.00 0.00 0.00 58 1013.2
20260906032306 30 0 0.0 0.0 0.00 0.00 0.00 56 1013.2
20260906031305 30 0 0.0 0.0 0.00 0.00 0.00 56 1013.2
20260906030303 30 0 0.0 0.0 0.00 0.00 0.00 54 1012.9
20260906025306 30 0 0.0 0.0 0.00 0.00 0.00 54 1012.9
20260906024301 30 0 0.0 0.0 0.00 0.00 0.00 53 1012.9
20260906023259 31 0 0.0 0.0 0.00 0.00 0.00 52 1012.5
20260906022258 31 0 0.0 0.0 0.00 0.00 0.00 52 1012.5
20260906021256 31 0 0.0 0.0 0.00 0.00 0.00 50 1012.5
20260906020255 32 0 0.0 0.0 0.00 0.00 0.00 49 1012.5
20260906015254 32 0 0.0 0.0 0.00 0.00 0.00 48 1012.2
20260906014252 33 0 0.0 0.0 0.00 0.00 0.00 46 1012.2
20260906013251 33 0 0.0 0.0 0.00 0.00 0.00 45 1011.9
20260906012250 34 0 0.0 0.0 0.00 0.00 0.00 44 1011.9
20260906011248 34 0 0.0 0.0 0.00 0.00 0.00 43 1011.9
20260906010247 35 0 0.0 0.0 0.00 0.00 0.00 42 1011.9
20260906005245 35 0 0.0 0.0 0.00 0.00 0.00 41 1011.9
20260906004244 36 0 0.0 0.0 0.00 0.00 0.00 40 1011.5
20260906003243 36 0 0.0 0.0 0.00 0.00 0.00 40 1011.9
20260906002241 36 0 0.0 0.0 0.00 0.00 0.00 39 1011.9
20260906001240 37 0 0.0 0.0 0.00 0.00 0.00 39 1011.5
20260906000241 37 0 0.0 0.0 0.00 0.00 0.00 38 1011.5
20260905235237 37 0 0.0 0.0 0.00 0.00 0.00 37 1011.5
20260905234236 37 0 0.0 0.0 0.00 0.00 0.00 37 1011.2
20260905233235 38 0 0.0 0.0 0.00 0.00 0.00 36 1011.2
20260905232233 38 0 0.0 0.0 0.00 0.00 0.00 36 1011.2
20260905231232 39 157 3.2 3.2 0.00 0.00 0.00 34 1011.2
20260905230231 40 0 0.0 0.0 0.00 0.00 0.00 34 1011.2
20260905225229 39 0 0.0 0.0 0.00 0.00 0.00 35 1011.2
20260905224228 38 0 0.0 0.0 0.00 0.00 0.00 34 1011.2
20260905223227 39 225 6.4 6.4 0.00 0.00 0.00 34 1011.5
20260905222225 39 0 0.0 0.0 0.00 0.00 0.00 35 1011.5
20260905221224 39 0 0.0 0.0 0.00 0.00 0.00 34 1011.5
20260905220223 39 0 0.0 0.0 0.00 0.00 0.00 34 1011.9
20260905215222 40 67 1.6 1.6 0.00 0.00 0.00 34 1011.9
20260905214220 39 0 0.0 0.0 0.00 0.00 0.00 34 1011.9
20260905213219 40 90 8.0 8.0 0.00 0.00 0.00 34 1011.9
20260905212218 40 0 0.0 0.0 0.00 0.00 0.00 34 1012.2
20260905211216 39 0 0.0 0.0 0.00 0.00 0.00 36 1012.2
20260905210215 40 0 0.0 0.0 0.00 0.00 0.00 34 1012.5
20260905205214 40 0 0.0 0.0 0.00 0.00 0.00 35 1012.5
20260905204212 40 0 0.0 0.0 0.00 0.00 0.00 34 1012.9